Temp
-11 -12 -12 -13 -13 -13 -12 -12 -12 -11 -11 -11 -11 -11 -12 -12 -12 -12 -12 -13 -13 -13 -13 -14 -13 -14 -13 -13 -13 -13 -13 -13
-11 -12 -12 -13 -13 -12 -12 -12 -11 -11 -11 -12 -11 -11 -12 -12 -12 -12 -12 -13 -13 -14 -14 -14 -14 -14 -13 -13 -13 -13 -13 -13
-12 -12 -12 -12 -11 -11 -12 -12 -12 -11 -11 -11 -11 -11 -11 -11 -12 -12 -12 -14 -15 -14 -14 -14 -14 -14 -13 -14 -13 -13 -13 -13
-13 -12 -12 -12 -12 -11 -12 -12 -12 -11 -11 -11 -11 -12 -12 -12 -12 -12 -13 -16 -15 -14 -14 -14 -14 -14 -14 -13 -13 -13 -13 -13
-13 -13 -13 -13 -13 -13 -12 -12 -12 -12 -12 -12 -12 -12 -13 -13 -13 -13 -15 -16 -15 -14 -14 -14 -14 -14 -14 -13 -13 -13 -14 -14
-13 -13 -13 -13 -13 -13 -12 -12 -12 -12 -12 -12 -13 -13 -13 -14 -14 -14 -16 -16 -15 -15 -14 -14 -14 -14 -14 -13 -14 -14 -14 -14
-12 -12 -13 -13 -12 -12 -12 -12 -12 -11 -12 -13 -13 -13 -14 -15 -14 -16 -16 -15 -15 -15 -15 -14 -14 -14 -14 -14 -14 -14 -13 -14
-12 -12 -12 -13 -12 -12 -12 -13 -13 -13 -14 -14 -14 -15 -15 -15 -16 -16 -15 -15 -15 -15 -15 -14 -14 -14 -15 -14 -14 -14 -13 -13
-12 -12 -12 -12 -13 -13 -13 -13 -13 -13 -13 -14 -15 -15 -15 -16 -15 -15 -15 -15 -15 -15 -15 -15 -15 -15 -15 -14 -14 -14 -14 -14
-12 -13 -13 -13 -13 -13 -13 -14 -14 -14 -15 -15 -15 -15 -15 -15 -15 -15 -15 -15 -15 -15 -15 -15 -15 -14 -14 -14 -14 -14 -15 -15
-15 -15 -15 -15 -14 -14 -14 -15 -14 -15 -15 -15 -15 -15 -15 -15 -15 -15 -15 -15 -15 -15 -15 -15 -14 -14 -15 -15 -15 -14 -14 -15
-14 -14 -13 -14 -13 -14 -14 -14 -15 -15 -15 -15 -15 -15 -15 -15 -15 -15 -15 -15 -15 -15 -15 -15 -15 -15 -15 -15 -15 -15 -15 -15
-14 -14 -13 -13 -14 -14 -14 -15 -15 -15 -15 -15 -15 -15 -15 -15 -16 -15 -15 -15 -15 -15 -15 -15 -15 -15 -15 -15 -15 -15 -16 -15
-14 -14 -14 -14 -14 -14 -14 -14 -14 -14 -14 -15 -15 -15 -15 -15 -16 -16 -15 -15 -15 -15 -15 -15 -15 -16 -15 -15 -15 -15 -15 -15
-14 -14 -14 -14 -14 -14 -14 -14 -14 -15 -15 -15 -15 -16 -16 -16 -15 -16 -15 -15 -15 -16 -16 -15 -15 -16 -16 -16 -16 -16 -16 -15
-14 -14 -14 -14 -14 -14 -15 -15 -15 -15 -16 -16 -16 -16 -16 -16 -16 -15 -15 -16 -15 -16 -16 -16 -16 -15 -16 -16 -16 -17 -17 -17
-15 -15 -15 -15 -15 -15 -15 -15 -15 -15 -15 -15 -16 -16 -16 -16 -15 -16 -16 -16 -16 -15 -16 -16 -16 -16 -16 -16 -17 -17 -18 -18
-15 -15 -15 -16 -16 -16 -16 -15 -15 -15 -16 -16 -15 -16 -16 -16 -16 -16 -16 -16 -16 -16 -16 -16 -16 -16 -16 -17 -17 -17 -17 -17
-15 -15 -16 -16 -16 -16 -16 -16 -16 -16 -16 -16 -16 -16 -16 -17 -16 -16 -16 -15 -16 -16 -16 -16 -17 -16 -17 -17 -17 -17 -17 -17
-15 -15 -15 -15 -16 -16 -16 -16 -16 -16 -16 -15 -16 -16 -16 -16 -16 -16 -16 -16 -16 -16 -16 -16 -16 -17 -17 -17 -17 -17 -18 -17
Height
5763 5773 5777 5781 5785 5788 5789 5791 5792 5793 5795 5798 5800 5801 5801 5802 5804 5806 5807 5809 5810 5812 5814 5815 5817 5819 5820 5820 5821 5821 5822 5824
5769 5772 5773 5778 5780 5783 5786 5785 5788 5787 5790 5794 5796 5797 5797 5800 5801 5802 5804 5805 5807 5810 5812 5814 5816 5816 5818 5819 5820 5821 5821 5820
5765 5769 5771 5777 5776 5775 5781 5783 5783 5783 5786 5789 5790 5791 5793 5794 5796 5797 5798 5800 5805 5809 5811 5812 5814 5815 5816 5817 5818 5818 5818 5818
5762 5764 5766 5770 5772 5770 5775 5777 5775 5779 5782 5783 5784 5785 5786 5788 5789 5792 5793 5797 5803 5807 5809 5811 5811 5813 5815 5815 5815 5815 5814 5813
5760 5761 5763 5765 5768 5769 5770 5772 5769 5772 5776 5778 5778 5781 5782 5783 5786 5787 5789 5796 5801 5805 5807 5808 5810 5810 5811 5813 5812 5812 5810 5809
5755 5757 5759 5761 5763 5766 5768 5767 5766 5767 5770 5772 5774 5775 5776 5780 5784 5785 5787 5794 5798 5801 5805 5805 5807 5808 5809 5809 5809 5808 5806 5802
5751 5755 5755 5756 5757 5760 5763 5763 5763 5762 5765 5769 5770 5770 5774 5780 5782 5784 5789 5792 5796 5799 5802 5802 5804 5805 5806 5805 5803 5801 5800 5798
5749 5750 5751 5753 5755 5758 5758 5759 5757 5759 5762 5764 5766 5771 5775 5779 5782 5786 5788 5790 5793 5797 5798 5800 5800 5801 5800 5800 5798 5797 5795 5794
5744 5746 5749 5749 5751 5754 5754 5755 5757 5760 5759 5762 5766 5771 5776 5778 5782 5785 5786 5789 5792 5794 5796 5796 5797 5796 5795 5794 5793 5791 5789 5786
5741 5743 5746 5747 5749 5750 5751 5755 5756 5755 5759 5764 5770 5772 5777 5778 5781 5782 5785 5788 5789 5790 5791 5792 5791 5791 5791 5790 5789 5787 5784 5780
5743 5746 5747 5748 5751 5753 5753 5758 5759 5759 5763 5768 5770 5774 5775 5777 5778 5781 5784 5786 5787 5787 5787 5787 5787 5786 5786 5785 5783 5779 5776 5775
5748 5751 5754 5754 5754 5753 5755 5759 5759 5763 5765 5768 5772 5773 5774 5775 5777 5779 5781 5784 5784 5784 5783 5781 5782 5781 5779 5779 5775 5771 5770 5767
5753 5755 5756 5753 5753 5756 5758 5761 5762 5764 5766 5768 5770 5769 5773 5772 5774 5776 5778 5780 5779 5778 5777 5777 5775 5773 5771 5770 5767 5767 5764 5762
5753 5754 5755 5756 5758 5758 5760 5762 5763 5764 5766 5769 5767 5762 5771 5770 5772 5773 5774 5773 5773 5774 5772 5771 5769 5767 5764 5763 5760 5758 5754 5751
5756 5756 5757 5757 5758 5759 5761 5761 5762 5764 5766 5767 5768 5768 5770 5770 5770 5770 5770 5768 5770 5768 5766 5765 5763 5761 5758 5756 5752 5746 5743 5739
5754 5755 5756 5758 5758 5759 5760 5760 5761 5763 5763 5764 5764 5766 5766 5767 5767 5766 5766 5765 5763 5762 5759 5757 5755 5751 5749 5745 5740 5735 5730 5725
5754 5755 5756 5757 5757 5758 5757 5758 5758 5759 5759 5760 5761 5761 5762 5762 5762 5762 5761 5760 5757 5753 5750 5747 5746 5742 5738 5735 5731 5725 5720 5714
5752 5753 5754 5755 5756 5755 5755 5756 5755 5755 5756 5756 5756 5757 5758 5756 5756 5756 5755 5751 5749 5744 5742 5741 5738 5734 5730 5725 5720 5714 5710 5703
5749 5751 5751 5751 5752 5752 5751 5752 5752 5751 5751 5753 5752 5752 5753 5752 5751 5749 5745 5740 5740 5736 5734 5732 5729 5725 5721 5717 5711 5705 5698 5691
5746 5746 5746 5746 5747 5747 5748 5748 5746 5747 5745 5745 5744 5741 5746 5744 5742 5740 5736 5733 5732 5729 5726 5723 5720 5715 5711 5707 5701 5694 5688 5682
Wind_Speed
34 24 16 13 16 21 20 22 24 23 30 26 30 30 27 23 20 19 13 11 11 12 11 9 6 5 7 10 12 10 12 11
28 20 18 19 22 22 25 25 25 26 33 30 30 31 31 28 23 22 20 14 12 11 9 7 6 5 8 10 9 11 14 19
10 11 19 21 21 23 22 35 35 32 32 31 33 26 24 27 29 27 21 16 13 10 8 6 4 6 8 8 10 14 17 19
14 13 16 16 22 25 21 29 30 38 36 41 35 37 28 34 31 29 20 17 14 9 6 5 4 6 7 9 13 17 19 20
22 17 19 21 18 24 27 32 32 39 19 23 23 28 36 36 30 25 20 16 12 8 8 6 7 7 10 13 16 18 21 23
25 27 28 26 19 23 27 30 25 25 30 26 34 41 37 33 26 23 22 14 11 11 9 8 9 10 13 15 18 21 26 30
26 24 23 21 19 24 27 24 28 32 28 26 28 26 22 22 26 18 15 13 11 10 11 10 10 12 15 18 22 27 27 29
25 23 21 17 20 26 27 24 26 21 25 24 16 16 19 22 17 14 13 11 11 12 11 11 12 15 18 21 24 28 30 28
20 19 20 26 26 31 27 23 28 26 13 8 16 21 21 13 11 11 10 11 12 11 12 14 17 18 20 22 27 29 30 33
20 21 25 20 14 10 11 5 8 12 13 18 19 15 12 10 10 10 11 12 11 12 14 18 20 22 23 25 27 29 31 33
17 13 12 14 12 12 13 13 13 15 16 13 10 9 8 7 10 12 12 12 13 15 18 22 24 25 27 24 28 33 36 38
10 7 6 8 7 9 9 7 9 10 11 9 7 7 7 10 13 14 12 14 16 20 23 26 28 33 33 27 30 33 40 43
3 3 2 2 5 5 5 4 2 1 1 4 9 11 10 10 12 13 16 19 21 25 28 32 35 36 37 35 37 37 40 46
2 3 4 2 2 4 5 4 5 6 6 11 13 10 13 12 15 19 20 21 24 28 31 35 38 38 40 37 41 42 46 49
1 2 4 5 5 5 5 5 6 7 7 10 13 15 15 18 21 21 23 27 29 31 34 35 34 36 37 38 42 47 49 51
5 7 7 8 10 10 9 8 9 10 10 12 13 15 17 20 25 26 30 32 37 35 36 36 36 41 36 41 44 49 52 58
9 10 11 11 12 13 12 12 12 13 14 16 16 19 21 25 26 30 38 40 39 42 42 32 38 42 47 52 47 51 51 58
13 14 15 14 14 14 14 15 13 12 13 15 16 18 24 27 25 32 34 39 38 44 42 35 41 44 45 50 57 53 55 66
12 13 14 15 15 16 21 15 18 16 16 16 18 22 24 28 32 35 40 39 35 33 33 38 40 43 43 55 50 52 62 64
13 14 16 17 17 18 17 19 27 24 19 20 27 20 26 31 35 35 31 29 30 34 38 41 44 47 43 46 52 59 62 71
Wind_Direction
197 206 215 219 231 234 240 239 245 251 251 264 257 266 255 251 245 256 264 262 250 255 222 216 223 258 289 304 308 320 326 326
204 207 227 224 234 236 240 242 245 246 260 253 261 259 257 260 257 261 262 243 235 212 217 209 238 259 288 298 312 319 328 324
253 243 210 220 249 239 244 265 246 252 266 262 289 255 262 264 261 256 241 215 193 203 210 219 238 274 283 296 310 320 321 321
265 253 265 253 234 251 265 263 290 254 266 276 272 265 269 253 260 259 223 176 183 199 205 223 226 260 284 299 306 313 316 325
275 271 273 260 269 265 263 281 291 251 272 261 263 269 281 266 254 232 183 174 186 205 211 222 251 264 281 299 308 309 328 330
268 276 276 272 250 267 264 269 259 273 287 284 269 283 279 252 243 194 158 173 197 206 218 229 249 277 296 300 311 319 329 330
263 268 267 270 255 255 272 276 265 282 282 262 269 273 255 229 221 159 168 188 200 214 224 238 264 287 302 315 317 324 326 324
264 273 263 249 237 258 258 257 268 263 264 257 260 233 200 180 155 175 185 191 200 213 234 260 279 297 315 317 322 321 317 318
270 259 266 254 243 250 251 234 240 252 234 215 205 177 159 159 181 198 202 203 205 230 258 276 288 305 313 316 315 321 322 321
268 263 242 232 197 176 154 155 177 135 135 156 152 147 168 183 201 193 197 209 227 250 271 283 298 309 312 308 311 315 320 323
76 74 88 96 109 112 99 122 123 125 145 153 148 176 188 204 201 199 213 233 252 269 281 291 298 304 305 300 307 316 321 321
76 94 134 115 123 104 112 126 127 146 153 157 184 206 223 214 208 217 233 255 269 281 287 291 295 299 298 294 297 304 310 316
137 169 208 80 21 5 18 12 4 221 147 257 236 218 252 229 230 244 252 264 278 286 290 291 296 297 295 294 295 291 297 300
21 20 13 35 9 356 349 328 310 299 268 261 273 275 260 237 235 248 256 271 282 286 292 294 296 296 296 300 300 298 298 301
339 22 17 7 358 346 330 324 316 303 281 265 255 258 252 248 251 258 269 273 277 284 289 292 298 303 299 301 300 297 296 303
335 342 350 349 342 341 328 318 303 295 294 278 268 260 259 261 268 271 274 277 283 283 286 288 306 306 296 294 300 298 295 305
311 310 314 323 318 312 316 318 306 293 285 282 280 275 276 281 282 276 274 277 279 281 279 294 300 309 297 302 295 296 287 297
300 305 308 311 312 310 306 301 302 288 280 281 288 288 287 287 289 295 288 287 285 290 290 297 297 302 298 301 298 295 291 296
286 299 308 307 307 305 313 292 301 287 269 268 284 286 295 298 305 312 303 291 288 298 298 290 296 299 304 292 291 284 294 297
282 298 304 308 307 299 302 301 293 284 268 282 272 284 296 307 309 306 317 308 302 299 297 296 295 293 289 286 289 291 294 295